Regional Weather Roundup
Issued by NWS

Home | Current Version | Previous Version | Text Only | Print | Product List | Glossary On
Versions: 1 2 3 4 5 6 7 8 9 10 11 12 13 14 15 16 17 18 19 20 21 22 23 24 25 26 27 28 29 30 31 32 33 34 35 36 37 38 39 40 41 42 43 44 45 46 47 48 49 50
000
ASUS43 KLMK 271210
RWRKY
KENTUCKY REGIONAL WEATHER ROUNDUP
NATIONAL WEATHER SERVICE LOUISVILLE KY
800 AM EDT WED JUL 27 2016

NOTE "FAIR" INDICATES FEW OR NO CLOUDS BELOW 12,000 FEET
WITH NO SIGNIFICANT WEATHER AND/OR OBSTRUCTIONS TO VISIBILITY.

KYZ001>023-026-027-061>063-070>075-271300-
WESTERN AND SOUTH CENTRAL KENTUCKY

CITY           SKY/WX    TMP DP  RH WIND       PRES   REMARKS
PADUCAH        SUNNY     76  73  91 CALM      29.99R FOG
HENDERSON      CLOUDY    73  72  94 CALM      30.00R VSB 1/4
OWENSBORO      CLOUDY    75  75 100 CALM      30.01S FOG
HOPKINSVILLE   PTSUNNY   77  75  94 E3        30.01R
BOWLING GREEN  MOSUNNY   78  75  90 CALM      30.02R
GLASGOW        MOSUNNY   76  75  95 CALM      30.02S
$$

KYZ024-025-028>034-038-045-046-053-271300-
NORTH CENTRAL KENTUCKY

CITY           SKY/WX    TMP DP  RH WIND       PRES   REMARKS
LOUISVILLE/SDF MOSUNNY   79  72  79 CALM      30.02R
LOUISVILLE/LOU SUNNY     76  72  87 CALM      30.03R
FORT KNOX      SUNNY     74  73  99 NW2       30.01S FOG
$$

KYZ035>037-039>044-047>052-055>060-089>105-271300-
NORTHEAST KENTUCKY

CITY           SKY/WX    TMP DP  RH WIND       PRES   REMARKS
LEXINGTON      SUNNY     76  71  85 CALM      30.04R
COVINGTON      CLOUDY    75  74  96 CALM      30.03R
FRANKFORT      MOSUNNY   74  71  91 CALM      30.03R
$$

KYZ054-064>069-076>088-106>120-271300-
SOUTHEAST KENTUCKY

CITY           SKY/WX    TMP DP  RH WIND       PRES   REMARKS
JACKSON        CLOUDY    75  73  93 CALM      30.06R
LONDON         CLOUDY    76  71  85 CALM      30.06R
SOMERSET       RAIN      73  73 100 CALM      30.05S
MIDDLESBORO    MOSUNNY   75  73  93 CALM      30.09R
MONTICELLO     CLOUDY   N/A N/A N/A NW5       30.06F
$$




USA.gov is the U.S. government's official web portal to all federal, state and local government web resources and services.